TimeBST,TemperatureF,Dew PointF,Humidity,Sea Level PressureIn,VisibilityMPH,Wind Direction,Wind SpeedMPH,Gust SpeedMPH,PrecipitationIn,Events,Conditions,WindDirDegrees,DateUTC
12:50 AM,60,58,90,29.76,,SW,17.3,,,,,230,2012-10-05 23:50:00
3:50 AM,49,47,90,29.74,,NNW,19.6,,,,,340,2012-10-06 02:50:00
6:50 AM,47,45,90,29.79,,NNE,15.0,,,,,20,2012-10-06 05:50:00
8:50 AM,48.2,44.6,87,29.86,6.2,NNE,10.4,-,N/A,,Partly Cloudy,20,2012-10-06 07:50:00
9:20 AM,48.2,44.6,87,29.86,6.2,NNE,10.4,-,N/A,,Scattered Clouds,30,2012-10-06 08:20:00
9:50 AM,48,44,83,29.90,,NNE,11.5,,,,,20,2012-10-06 08:50:00
9:50 AM,48.2,44.6,87,29.89,6.2,NNE,10.4,-,N/A,,Scattered Clouds,20,2012-10-06 08:50:00
10:20 AM,48.2,44.6,87,29.89,6.2,North,11.5,-,N/A,,Partly Cloudy,360,2012-10-06 09:20:00
10:50 AM,50.0,46.4,87,29.92,6.2,NNE,8.1,-,N/A,,Partly Cloudy,20,2012-10-06 09:50:00
11:20 AM,50.0,44.6,82,29.92,6.2,NNE,5.8,-,N/A,,Partly Cloudy,20,2012-10-06 10:20:00
11:50 AM,50.0,46.4,87,29.95,6.2,North,6.9,-,N/A,,Partly Cloudy,10,2012-10-06 10:50:00
12:20 PM,53.6,48.2,82,29.95,6.2,North,6.9,-,N/A,,Partly Cloudy,10,2012-10-06 11:20:00
12:50 PM,54,46,68,29.94,,NNE,9.2,,,,,30,2012-10-06 11:50:00
12:50 PM,55.4,48.2,77,29.92,6.2,NE,9.2,-,N/A,,Partly Cloudy,40,2012-10-06 11:50:00
1:20 PM,55.4,46.4,72,29.92,6.2,NE,9.2,-,N/A,,Partly Cloudy,40,2012-10-06 12:20:00
1:50 PM,55.4,46.4,72,29.95,6.2,ENE,8.1,-,N/A,,Partly Cloudy,60,2012-10-06 12:50:00
2:20 PM,55.4,44.6,67,29.95,6.2,NE,9.2,-,N/A,,Scattered Clouds,40,2012-10-06 13:20:00
2:50 PM,57.2,46.4,67,29.92,6.2,NE,6.9,-,N/A,,Partly Cloudy,40,2012-10-06 13:50:00
3:20 PM,55.4,46.4,72,29.92,6.2,ENE,8.1,-,N/A,,Scattered Clouds,70,2012-10-06 14:20:00
3:50 PM,57,46,57,29.94,,ESE,9.2,,,,,110,2012-10-06 14:50:00
3:50 PM,57.2,46.4,67,29.92,6.2,ESE,10.4,-,N/A,,Scattered Clouds,110,2012-10-06 14:50:00
4:20 PM,57.2,46.4,67,29.95,6.2,ESE,8.1,-,N/A,,Scattered Clouds,120,2012-10-06 15:20:00
4:50 PM,57.2,46.4,67,29.95,6.2,ENE,5.8,-,N/A,,Partly Cloudy,60,2012-10-06 15:50:00
5:20 PM,55.4,44.6,67,29.95,6.2,ENE,6.9,-,N/A,,Partly Cloudy,70,2012-10-06 16:20:00
5:50 PM,55.4,46.4,72,29.95,6.2,NE,4.6,-,N/A,,Partly Cloudy,50,2012-10-06 16:50:00
6:50 PM,49,44,78,29.98,,NE,5.8,,,,,40,2012-10-06 17:50:00
9:50 PM,45,43,91,30.02,,NNE,4.6,,,,,20,2012-10-06 20:50:00